Regional Weather Roundup
Issued by NWS

Home | Current Version | Previous Version | Graphics & Text | Print | Product List | Glossary Off
Versions: 1 2 3 4 5 6 7 8 9 10 11 12 13 14 15 16 17 18 19 20 21 22 23 24 25 26 27 28 29 30 31 32 33 34 35 36 37 38 39 40 41 42 43 44 45 46 47 48 49 50

000
ASUS43 KMPX 211401
RWRMN
WEATHER ROUNDUP FOR MINNESOTA
NATIONAL WEATHER SERVICE TWIN CITIES/CHANHASSEN MN
900 AM CDT MON AUG 21 2017


NOTE: "FAIR" INDICATES FEW OR NO CLOUDS BELOW 12,000 FEET WITH NO
SIGNIFICANT WEATHER AND/OR OBSTRUCTIONS TO VISIBILITY. N/A MEANS
CURRENT SKY AND/OR WEATHER CONDITIONS ARE NOT AVAILABLE.

MNZ060>063-068>070-211500-
   Twin Cities Metro

CITY           SKY/WX    TMP DP  RH WIND       PRES   REMARKS
TWIN CITIES    CLOUDY    68  60  75 NE5       30.03F
ST PAUL        CLOUDY    67  62  84 SE3       30.03F
CRYSTAL        PTSUNNY   70  58  65 NE3       30.01F
BLAINE         PTSUNNY   70  63  78 E6        30.04S
LAKEVILLE      PTSUNNY   66  66 100 CALM      30.03S
EDEN PRAIRIE   CLOUDY    71  61  70 E5        30.01F
SOUTH ST PAUL  CLOUDY    67  60  78 CALM      30.03S
LAKE ELMO      FAIR      64  61  88 CALM      30.05S
$$
MNZ001>005-007-008-013>017-022>024-027-028-211500-
   Northwest Minnesota

CITY           SKY/WX    TMP DP  RH WIND       PRES   REMARKS
BEMIDJI        CLOUDY    55  54  94 CALM      30.05F
HALLOCK        CLOUDY    59  52  77 SE7       29.98F
ROSEAU           N/A     57  52  82 S5        30.02F
WARROAD        CLOUDY    55  52  88 SW6       30.03F
CROOKSTON      CLOUDY    61  54  77 SE9       30.00F
FOSSTON        CLOUDY    57  54  88 CALM      30.04F
DETROIT LAKES  LGT RAIN  61  55  82 SE12      30.04F
MOORHEAD       CLOUDY    61  55  82 N3        30.03R
PARK RAPIDS    LGT RAIN  58  56  93 CALM      30.08R
MAHNOMEN       CLOUDY    60  56  87 CALM      30.03F
$$
MNZ006-009>011-018-025>026-211500-
   North Central Minnesota

CITY           SKY/WX    TMP DP  RH WIND       PRES   REMARKS
BAUDETTE       CLOUDY    54  50  86 S3        30.03S
FLAG ISLAND    CLOUDY    61  46  59 CALM      30.00S HAZE
INTL FALLS     CLOUDY    58  51  78 SW3       30.05R
WASKISH        CLOUDY    57  54  88 CALM      30.05S
BIG FORK       CLOUDY    55  55 100 CALM      30.06F
LONGVILLE      CLOUDY    55  55 100 CALM      30.07R
GRAND RAPIDS   CLOUDY    59  56  89 CALM      30.08F
CRANE LAKE     MOSUNNY   55  55 100 CALM      30.08R
ORR            CLOUDY    55  50  82 CALM      30.04S
COOK           CLOUDY    57  54  88 CALM      30.06F
WALKER         PTSUNNY   55  53  93 CALM      30.08R
$$
MNZ012-019>021-037-211500-
   Northeast Minnesota

CITY           SKY/WX    TMP DP  RH WIND       PRES   REMARKS
DULUTH         MOSUNNY   66  57  72 CALM      30.07S
ELY            CLOUDY    61  54  77 CALM      30.06F
HIBBING        CLOUDY    54  52  93 CALM      30.06F
EVELETH        CLOUDY    55  52  92 CALM      30.07F
DULUTH HARBOR  CLOUDY    64  61  88 S3        30.06S
TWO HARBORS    PTSUNNY   64  59  82 CALM      30.04S
GRAND MARAIS     N/A     65  58  78 CALM      30.03F
G MARAIS ARPRT PTSUNNY   64  48  55 CALM      30.08F
$$
MNZ029>031-032-039>041-046>048-054>057-064-211500-
   West Central Minnesota

CITY           SKY/WX    TMP DP  RH WIND       PRES   REMARKS
FERGUS FALLS   DRIZZLE   61  61 100 E7        30.02F
WHEATON        LGT RAIN  61  57  88 E12       30.02F
MORRIS         CLOUDY    61  59  94 NE8       30.02F
ALEXANDRIA     CLOUDY    63  59  87 E5        30.08R
ELBOW LAKE     FAIR      61  57  88 E7        30.05F
WADENA         LGT RAIN  57  57 100 CALM      30.09S
GLENWOOD       PTSUNNY   63  57  82 NE7       30.07R
APPLETON       CLOUDY    63  57  82 NE8       30.00F
BENSON         CLOUDY    64  59  82 NE8       30.04S
ORTONVILLE     CLOUDY    61  57  88 MISG      30.03F
MADISON        LGT RAIN  63  63 100 NE8       29.99F
WILLMAR        FAIR      66  61  82 E5        30.03S
$$
MNZ033>034-036-042>043-049>051-058-059-211500-
   Central Minnesota

CITY           SKY/WX    TMP DP  RH WIND       PRES   REMARKS
ST CLOUD       CLOUDY    66  60  81 E5        30.05F
SAUK CENTRE    PTSUNNY   63  57  81 CALM      30.08R HAZE
PAYNESVILLE    MOSUNNY   66  59  78 E3        30.05S
AITKIN         CLOUDY    57  55  94 CALM      30.04F
PINE RIVER     LGT RAIN  57  54  88 CALM      30.12R
BRAINERD       CLOUDY    62  58  86 NW7       30.08R
STAPLES        DRIZZLE   57  55  94 CALM      30.09R
LONG PRAIRIE   CLOUDY    61  57  88 W3        30.10R
LITTLE FALLS   MOSUNNY   63  55  77 CALM      30.07R
LITCHFIELD     CLOUDY    68  63  83 E7        30.01F
BUFFALO        PTSUNNY   67  60  75 NE3       30.04F
MAPLE LAKE     MOSUNNY   68  62  80 E5        30.04F
HUTCHINSON     CLOUDY    69  65  88 E8        30.02F
$$
MNZ037-044-045-052-053-211500-
   East Central Minnesota

CITY           SKY/WX    TMP DP  RH WIND       PRES   REMARKS
PRINCETON      MOSUNNY   66  61  82 E7        30.04F
MORA           PTSUNNY   61  59  94 CALM      30.07F
CAMBRIDGE      CLOUDY    70  57  64 E3        30.05F
RUSH CITY      MOSUNNY   63  58  85 CALM      30.06S
MOOSE LAKE     LGT RAIN  57  55  94 CALM      30.05S
HINCKLEY       FAIR      61  59  94 CALM      30.06F
CLOQUET        CLOUDY    64  54  68 CALM      30.07R
MCGREGOR       CLOUDY    59  57  94 CALM      30.06F
$$
MNZ071>073-080-081-089-090-097-098-211500-
   Southwest Minnesota

CITY           SKY/WX    TMP DP  RH WIND       PRES   REMARKS
MONTEVIDEO     LGT RAIN  63  61  94 CALM      29.99F
GRANITE FALLS  CLOUDY    67  65  93 E3        29.99F
CANBY          CLOUDY    62  60  94 CALM      30.00F
MARSHALL       CLOUDY    65  63  93 SE5       29.98F
REDWOOD FALLS  SUNNY     69  65  86 E8        29.99F
OLIVIA         CLOUDY    70  64  83 SE7       30.00S
PIPESTONE      CLOUDY    68  66  94 E3        29.98S FOG
WINDOM         SUNNY     70  64  83 SE8       29.99S
WORTHINGTON    CLOUDY    69  66  90 MISG      30.00S
JACKSON        MOSUNNY   70  63  78 S9G17     30.01R
TRACY          CLOUDY    66  66  99 E5        29.98F
SLAYTON        CLOUDY    67  62  84 CALM      30.00F
$$
MNZ065>067-074>077-082>085-091>093-211500-
   South Central Minnesota

CITY           SKY/WX    TMP DP  RH WIND       PRES   REMARKS
MANKATO        MOSUNNY   71  67  87 NE5       30.02F
NEW ULM        SUNNY     70  64  83 E8        30.01F
ST JAMES       SUNNY     72  66  83 SE7       30.01F
FAIRMONT       SUNNY     71  65  81 S6        30.00R
GLENCOE        MOSUNNY   68  67  97 E7        30.00F
FARIBAULT      DRIZZLE   66  64  94 SW3       30.00F
OWATONNA       CLOUDY    70  66  88 CALM      30.03F
WASECA         CLOUDY    70  66  88 NE6       30.04F
ALBERT LEA     MOSUNNY   75  68  78 N5        30.02F
$$
MNZ078>079-086>088-094>096-211500-
   Southeast Minnesota

CITY           SKY/WX    TMP DP  RH WIND       PRES   REMARKS
ROCHESTER      PTSUNNY   70  68  93 NE6       30.07R
RED WING       LGT RAIN  66  63  88 NE3       30.02F
STANTON        LGT RAIN  67  65  93 SE8       29.98F
DODGE CENTER   CLOUDY    70  66  88 NE5       30.06S
WINONA         CLOUDY    70  68  94 E3        30.04F
AUSTIN         CLOUDY    70  68  94 NE7       30.03S
PRESTON        CLOUDY    67  65  94 N3        30.06S
$$
ABBREVIATIONS USED IN REMARKS
   TC - TEMPERATURES IN CELSIUS
  WCI - WIND CHILL INDEX
   HX - HEAT INDEX
  VSB - VISIBILITY
$$



USA.gov is the U.S. government's official web portal to all federal, state and local government web resources and services.